Time,TemperatureF,DewpointF,PressureIn,WindDirection,WindDirectionDegrees,WindSpeedMPH,WindSpeedGustMPH,Humidity,HourlyPrecipIn,Conditions,Clouds,dailyrainin,SoftwareType,DateUTC
2015-02-28 00:00:00,13.7,4.1,30.70,ENE,72,0.0,1.0,65,0.00,,---,0.00,VWS V15.00,2015-02-28 05:00:00,
2015-02-28 00:05:00,13.5,4.3,30.70,ENE,72,0.0,0.0,66,0.00,,---,0.00,VWS V15.00,2015-02-28 05:05:00,
2015-02-28 00:10:00,13.3,4.4,30.71,ENE,72,0.0,1.0,67,0.00,,---,0.00,VWS V15.00,2015-02-28 05:10:00,
2015-02-28 00:15:00,13.3,4.1,30.71,ESE,118,0.0,0.0,66,0.00,,---,0.00,VWS V15.00,2015-02-28 05:15:00,
2015-02-28 00:20:00,13.1,4.2,30.71,ESE,117,0.0,1.0,67,0.00,,---,0.00,VWS V15.00,2015-02-28 05:20:00,
2015-02-28 00:25:00,13.1,4.2,30.71,East,101,0.0,1.0,67,0.00,,---,0.00,VWS V15.00,2015-02-28 05:25:00,
2015-02-28 00:30:00,13.0,4.1,30.71,ENE,67,1.0,1.0,67,0.00,,---,0.00,VWS V15.00,2015-02-28 05:30:00,
2015-02-28 00:35:00,13.0,4.1,30.71,ENE,73,0.0,1.0,67,0.00,,---,0.00,VWS V15.00,2015-02-28 05:35:00,
2015-02-28 00:40:00,12.8,3.9,30.71,ENE,73,0.0,1.0,67,0.00,,---,0.00,VWS V15.00,2015-02-28 05:40:00,
2015-02-28 00:45:00,12.7,3.8,30.71,ENE,73,0.0,1.0,67,0.00,,---,0.00,VWS V15.00,2015-02-28 05:45:00,
2015-02-28 00:50:00,12.7,3.8,30.71,East,82,0.0,1.0,67,0.00,,---,0.00,VWS V15.00,2015-02-28 05:50:00,
2015-02-28 00:55:00,12.8,3.9,30.71,East,82,0.0,1.0,67,0.00,,---,0.00,VWS V15.00,2015-02-28 05:55:00,
2015-02-28 01:00:00,12.6,3.7,30.71,East,82,0.0,1.0,67,0.00,,---,0.00,VWS V15.00,2015-02-28 06:00:00,
2015-02-28 01:05:00,12.4,3.5,30.72,East,82,0.0,0.0,67,0.00,,---,0.00,VWS V15.00,2015-02-28 06:05:00,
2015-02-28 01:10:00,12.3,3.5,30.72,East,82,0.0,1.0,67,0.00,,---,0.00,VWS V15.00,2015-02-28 06:10:00,
2015-02-28 01:15:00,12.1,3.3,30.72,East,82,0.0,1.0,67,0.00,,---,0.00,VWS V15.00,2015-02-28 06:15:00,
2015-02-28 01:20:00,11.9,3.4,30.72,East,82,0.0,1.0,68,0.00,,---,0.00,VWS V15.00,2015-02-28 06:20:00,
2015-02-28 01:25:00,11.9,3.7,30.72,East,82,0.0,0.0,69,0.00,,---,0.00,VWS V15.00,2015-02-28 06:25:00,
2015-02-28 01:30:00,12.1,3.9,30.72,East,82,0.0,1.0,69,0.00,,---,0.00,VWS V15.00,2015-02-28 06:30:00,
2015-02-28 01:35:00,12.1,3.9,30.72,East,82,0.0,0.0,69,0.00,,---,0.00,VWS V15.00,2015-02-28 06:35:00,
2015-02-28 01:40:00,12.2,4.3,30.72,East,84,0.0,1.0,70,0.00,,---,0.00,VWS V15.00,2015-02-28 06:40:00,
2015-02-28 01:45:00,12.2,4.6,30.72,East,84,0.0,1.0,71,0.00,,---,0.00,VWS V15.00,2015-02-28 06:45:00,
2015-02-28 01:50:00,12.4,4.5,30.72,ENE,65,1.0,2.0,70,0.00,,---,0.00,VWS V15.00,2015-02-28 06:50:00,
2015-02-28 01:55:00,12.7,4.8,30.72,SE,131,3.0,3.0,70,0.00,,---,0.00,VWS V15.00,2015-02-28 06:55:00,
2015-02-28 02:00:00,13.0,4.8,30.72,SE,129,1.0,3.0,69,0.00,,---,0.00,VWS V15.00,2015-02-28 07:00:00,
2015-02-28 02:05:00,13.2,4.6,30.72,East,90,1.0,2.0,68,0.00,,---,0.00,VWS V15.00,2015-02-28 07:05:00,
2015-02-28 02:10:00,13.3,4.7,30.72,East,101,1.0,3.0,68,0.00,,---,0.00,VWS V15.00,2015-02-28 07:10:00,
2015-02-28 02:15:00,13.4,4.8,30.72,East,90,1.0,4.0,68,0.00,,---,0.00,VWS V15.00,2015-02-28 07:15:00,
2015-02-28 02:20:00,13.4,4.5,30.72,ESE,118,0.0,4.0,67,0.00,,---,0.00,VWS V15.00,2015-02-28 07:20:00,
2015-02-28 02:25:00,13.4,4.5,30.72,East,81,3.0,4.0,67,0.00,,---,0.00,VWS V15.00,2015-02-28 07:25:00,
2015-02-28 02:30:00,13.4,4.5,30.71,ENE,73,3.0,4.0,67,0.00,,---,0.00,VWS V15.00,2015-02-28 07:30:00,
2015-02-28 02:35:00,13.3,4.4,30.71,East,95,1.0,1.0,67,0.00,,---,0.00,VWS V15.00,2015-02-28 07:35:00,
2015-02-28 02:40:00,13.2,4.3,30.71,East,91,0.0,3.0,67,0.00,,---,0.00,VWS V15.00,2015-02-28 07:40:00,
2015-02-28 02:45:00,13.2,4.3,30.71,East,82,1.0,2.0,67,0.00,,---,0.00,VWS V15.00,2015-02-28 07:45:00,
2015-02-28 02:50:00,13.1,4.2,30.71,ENE,65,2.0,3.0,67,0.00,,---,0.00,VWS V15.00,2015-02-28 07:50:00,
2015-02-28 02:55:00,13.1,4.2,30.72,East,88,1.0,2.0,67,0.00,,---,0.00,VWS V15.00,2015-02-28 07:55:00,
2015-02-28 03:00:00,13.1,3.9,30.71,East,86,2.0,6.0,66,0.00,,---,0.00,VWS V15.00,2015-02-28 08:00:00,
2015-02-28 03:05:00,13.1,3.9,30.72,ESE,105,2.0,2.0,66,0.00,,---,0.00,VWS V15.00,2015-02-28 08:05:00,
2015-02-28 03:10:00,13.1,3.9,30.71,ENE,75,2.0,3.0,66,0.00,,---,0.00,VWS V15.00,2015-02-28 08:10:00,
2015-02-28 03:15:00,13.1,3.9,30.71,ENE,57,1.0,3.0,66,0.00,,---,0.00,VWS V15.00,2015-02-28 08:15:00,
2015-02-28 03:20:00,13.0,3.8,30.71,ENE,63,0.0,3.0,66,0.00,,---,0.00,VWS V15.00,2015-02-28 08:20:00,
2015-02-28 03:25:00,12.9,4.0,30.71,NE,49,0.0,2.0,67,0.00,,---,0.00,VWS V15.00,2015-02-28 08:25:00,
2015-02-28 03:30:00,12.9,4.0,30.72,ESE,120,2.0,2.0,67,0.00,,---,0.00,VWS V15.00,2015-02-28 08:30:00,
2015-02-28 03:35:00,12.9,4.3,30.71,East,101,1.0,2.0,68,0.00,,---,0.00,VWS V15.00,2015-02-28 08:35:00,
2015-02-28 03:40:00,12.9,4.3,30.71,East,88,0.0,3.0,68,0.00,,---,0.00,VWS V15.00,2015-02-28 08:40:00,
2015-02-28 03:45:00,12.8,4.2,30.71,ENE,67,1.0,2.0,68,0.00,,---,0.00,VWS V15.00,2015-02-28 08:45:00,
2015-02-28 03:50:00,12.7,4.2,30.71,ESE,109,1.0,3.0,68,0.00,,---,0.00,VWS V15.00,2015-02-28 08:50:00,
2015-02-28 03:55:00,12.6,4.1,30.71,East,90,1.0,3.0,68,0.00,,---,0.00,VWS V15.00,2015-02-28 08:55:00,
2015-02-28 04:00:00,12.6,3.7,30.71,East,84,2.0,4.0,67,0.00,,---,0.00,VWS V15.00,2015-02-28 09:00:00,
2015-02-28 04:05:00,12.5,3.6,30.71,ENE,75,2.0,5.0,67,0.00,,---,0.00,VWS V15.00,2015-02-28 09:05:00,
2015-02-28 04:10:00,12.5,3.6,30.71,East,82,2.0,5.0,67,0.00,,---,0.00,VWS V15.00,2015-02-28 09:10:00,
2015-02-28 04:15:00,12.5,3.6,30.71,East,94,1.0,3.0,67,0.00,,---,0.00,VWS V15.00,2015-02-28 09:15:00,
2015-02-28 04:20:00,12.4,3.5,30.71,ESE,121,0.0,6.0,67,0.00,,---,0.00,VWS V15.00,2015-02-28 09:20:00,
2015-02-28 04:25:00,12.4,3.5,30.71,ENE,73,0.0,3.0,67,0.00,,---,0.00,VWS V15.00,2015-02-28 09:25:00,
2015-02-28 04:30:00,12.2,3.3,30.71,ENE,78,1.0,3.0,67,0.00,,---,0.00,VWS V15.00,2015-02-28 09:30:00,
2015-02-28 04:35:00,12.0,3.5,30.72,ESE,109,0.0,2.0,68,0.00,,---,0.00,VWS V15.00,2015-02-28 09:35:00,
2015-02-28 04:40:00,11.9,3.4,30.72,East,101,0.0,2.0,68,0.00,,---,0.00,VWS V15.00,2015-02-28 09:40:00,
2015-02-28 04:45:00,11.9,3.4,30.72,ESE,113,0.0,3.0,68,0.00,,---,0.00,VWS V15.00,2015-02-28 09:45:00,
2015-02-28 04:50:00,11.8,3.6,30.72,East,96,2.0,3.0,69,0.00,,---,0.00,VWS V15.00,2015-02-28 09:50:00,
2015-02-28 04:55:00,11.9,3.4,30.72,East,92,1.0,2.0,68,0.00,,---,0.00,VWS V15.00,2015-02-28 09:55:00,
2015-02-28 05:00:00,11.9,3.4,30.72,East,82,0.0,4.0,68,0.00,,---,0.00,VWS V15.00,2015-02-28 10:00:00,
2015-02-28 05:05:00,11.9,3.4,30.72,East,88,1.0,2.0,68,0.00,,---,0.00,VWS V15.00,2015-02-28 10:05:00,
2015-02-28 05:10:00,11.9,3.4,30.72,East,101,0.0,2.0,68,0.00,,---,0.00,VWS V15.00,2015-02-28 10:10:00,
2015-02-28 05:15:00,11.9,3.4,30.72,ENE,63,1.0,3.0,68,0.00,,---,0.00,VWS V15.00,2015-02-28 10:15:00,
2015-02-28 05:20:00,11.8,3.3,30.72,East,81,2.0,3.0,68,0.00,,---,0.00,VWS V15.00,2015-02-28 10:20:00,
2015-02-28 05:25:00,11.8,3.3,30.72,ESE,112,2.0,3.0,68,0.00,,---,0.00,VWS V15.00,2015-02-28 10:25:00,
2015-02-28 05:30:00,11.8,3.3,30.72,ENE,68,1.0,4.0,68,0.00,,---,0.00,VWS V15.00,2015-02-28 10:30:00,
2015-02-28 05:35:00,12.0,3.5,30.72,ESE,117,3.0,6.0,68,0.00,,---,0.00,VWS V15.00,2015-02-28 10:35:00,
2015-02-28 05:40:00,12.1,3.3,30.72,NE,47,3.0,6.0,67,0.00,,---,0.00,VWS V15.00,2015-02-28 10:40:00,
2015-02-28 05:45:00,12.3,3.5,30.72,ENE,72,2.0,7.0,67,0.00,,---,0.00,VWS V15.00,2015-02-28 10:45:00,
2015-02-28 05:50:00,12.4,3.2,30.72,ESE,115,4.0,7.0,66,0.00,,---,0.00,VWS V15.00,2015-02-28 10:50:00,
2015-02-28 05:55:00,12.5,3.3,30.72,East,101,3.0,6.0,66,0.00,,---,0.00,VWS V15.00,2015-02-28 10:55:00,
2015-02-28 06:00:00,12.6,3.4,30.73,SE,134,1.0,7.0,66,0.00,,---,0.00,VWS V15.00,2015-02-28 11:00:00,
2015-02-28 06:05:00,12.6,3.4,30.73,East,91,3.0,7.0,66,0.00,,---,0.00,VWS V15.00,2015-02-28 11:05:00,
2015-02-28 06:10:00,12.7,3.5,30.73,SE,139,3.0,7.0,66,0.00,,---,0.00,VWS V15.00,2015-02-28 11:10:00,
2015-02-28 06:15:00,12.8,3.6,30.73,ESE,120,5.0,6.0,66,0.00,,---,0.00,VWS V15.00,2015-02-28 11:15:00,
2015-02-28 06:20:00,12.9,3.7,30.73,ESE,120,2.0,6.0,66,0.00,,---,0.00,VWS V15.00,2015-02-28 11:20:00,
2015-02-28 06:25:00,12.9,3.7,30.73,East,82,2.0,3.0,66,0.00,,---,0.00,VWS V15.00,2015-02-28 11:25:00,
2015-02-28 06:30:00,12.9,3.7,30.73,East,95,2.0,6.0,66,0.00,,---,0.00,VWS V15.00,2015-02-28 11:30:00,
2015-02-28 06:34:00,13.0,3.5,30.73,ENE,70,4.0,7.0,65,0.00,,---,0.00,VWS V15.00,2015-02-28 11:34:00,
2015-02-28 06:39:00,13.0,3.8,30.74,East,96,2.0,7.0,66,0.00,,---,0.00,VWS V15.00,2015-02-28 11:39:00,
2015-02-28 06:44:00,13.0,3.5,30.74,ENE,58,6.0,7.0,65,0.00,,---,0.00,VWS V15.00,2015-02-28 11:44:00,
2015-02-28 06:49:00,13.0,3.8,30.74,ENE,63,2.0,7.0,66,0.00,,---,0.00,VWS V15.00,2015-02-28 11:49:00,
2015-02-28 06:54:00,13.1,3.6,30.75,ESE,116,1.0,6.0,65,0.00,,---,0.00,VWS V15.00,2015-02-28 11:54:00,
2015-02-28 06:59:00,13.1,3.9,30.75,NE,54,2.0,6.0,66,0.00,,---,0.00,VWS V15.00,2015-02-28 11:59:00,
2015-02-28 07:04:00,13.1,3.6,30.75,East,96,3.0,5.0,65,0.00,,---,0.00,VWS V15.00,2015-02-28 12:04:00,
2015-02-28 07:09:00,13.1,3.9,30.74,ESE,115,3.0,5.0,66,0.00,,---,0.00,VWS V15.00,2015-02-28 12:09:00,
2015-02-28 07:14:00,13.2,4.0,30.74,East,91,2.0,5.0,66,0.00,,---,0.00,VWS V15.00,2015-02-28 12:14:00,
2015-02-28 07:19:00,13.2,4.0,30.74,ESE,120,1.0,6.0,66,0.00,,---,0.00,VWS V15.00,2015-02-28 12:19:00,
2015-02-28 07:24:00,13.3,4.1,30.75,ENE,78,1.0,4.0,66,0.00,,---,0.00,VWS V15.00,2015-02-28 12:24:00,
2015-02-28 07:29:00,13.3,4.1,30.75,ENE,68,0.0,4.0,66,0.00,,---,0.00,VWS V15.00,2015-02-28 12:29:00,
2015-02-28 07:34:00,13.4,4.2,30.75,ENE,63,1.0,6.0,66,0.00,,---,0.00,VWS V15.00,2015-02-28 12:34:00,
2015-02-28 07:39:00,13.5,4.3,30.75,ENE,63,4.0,7.0,66,0.00,,---,0.00,VWS V15.00,2015-02-28 12:39:00,
2015-02-28 07:44:00,13.5,4.3,30.75,East,91,2.0,6.0,66,0.00,,---,0.00,VWS V15.00,2015-02-28 12:44:00,
2015-02-28 07:49:00,13.6,4.4,30.75,ENE,78,2.0,6.0,66,0.00,,---,0.00,VWS V15.00,2015-02-28 12:49:00,
2015-02-28 07:54:00,13.7,4.5,30.76,ENE,78,1.0,4.0,66,0.00,,---,0.00,VWS V15.00,2015-02-28 12:54:00,
2015-02-28 07:59:00,13.8,4.6,30.76,East,88,2.0,4.0,66,0.00,,---,0.00,VWS V15.00,2015-02-28 12:59:00,
2015-02-28 08:04:00,13.9,4.7,30.76,East,99,5.0,7.0,66,0.00,,---,0.00,VWS V15.00,2015-02-28 13:04:00,
2015-02-28 08:09:00,14.0,4.8,30.76,East,79,2.0,7.0,66,0.00,,---,0.00,VWS V15.00,2015-02-28 13:09:00,
2015-02-28 08:14:00,14.0,4.4,30.76,East,80,3.0,4.0,65,0.00,,---,0.00,VWS V15.00,2015-02-28 13:14:00,
2015-02-28 08:19:00,14.2,4.6,30.76,ESE,109,1.0,6.0,65,0.00,,---,0.00,VWS V15.00,2015-02-28 13:19:00,
2015-02-28 08:24:00,14.3,4.7,30.76,ENE,65,2.0,4.0,65,0.00,,---,0.00,VWS V15.00,2015-02-28 13:24:00,
2015-02-28 08:29:00,14.4,4.8,30.76,ENE,72,1.0,6.0,65,0.00,,---,0.00,VWS V15.00,2015-02-28 13:29:00,
2015-02-28 08:34:00,14.7,5.4,30.77,East,84,4.0,4.0,66,0.00,,---,0.00,VWS V15.00,2015-02-28 13:34:00,
2015-02-28 08:39:00,14.8,5.2,30.77,ESE,110,4.0,5.0,65,0.00,,---,0.00,VWS V15.00,2015-02-28 13:39:00,
2015-02-28 08:44:00,14.9,4.9,30.77,East,99,0.0,5.0,64,0.00,,---,0.00,VWS V15.00,2015-02-28 13:44:00,
2015-02-28 08:49:00,15.3,5.7,30.77,East,96,0.0,5.0,65,0.00,,---,0.00,VWS V15.00,2015-02-28 13:49:00,
2015-02-28 08:54:00,15.6,5.6,30.77,ESE,114,1.0,4.0,64,0.00,,---,0.00,VWS V15.00,2015-02-28 13:54:00,
2015-02-28 08:59:00,15.9,5.9,30.77,SE,125,1.0,7.0,64,0.00,,---,0.00,VWS V15.00,2015-02-28 13:59:00,